Location: 3 Angels Observatory
(30.5437°N, 88.5068°W)
Time: 19:59:30
(UTC-05:00)

Daily predictions for brighter satellites

Satellite Brightness Start Highest point End
(mag) Time Altitude Azimuth Time Altitude Azimuth Time Altitude Azimuth
Abrixas rocket 2.3 20:12:38 10° NW 20:16:02 78° NE 20:19:26 10° SE
Coronas F rocket 1.9 20:14:58 10° SSE 20:17:24 34° E 20:19:50 10° NNE
FengYun 1-2 T 4.3 20:15:03 10° SSE 20:20:39 89° ENE 20:26:20 10° NNW
Cosmos 2084 3.8 20:22:10 10° S 20:25:43 33° ESE 20:29:12 10° NE
ERS-1 Rocket 4.2 20:23:10 10° ESE 20:27:12 25° ENE 20:31:13 10° NNE
Cosmos 1733 Rocket 3.3 20:24:38 10° SSE 20:28:53 49° E 20:33:07 10° NNE
ATLAS 5 CENTAUR R/B 3.0 20:23:19 10° NNW 20:29:10 45° ENE 20:35:09 11° SE
Cosmos 1452 Rocket 4.1 20:31:42 10° SSE 20:36:27 36° E 20:41:14 10° NE
COSMOS 2406 3.4 20:38:16 10° N 20:43:52 54° ENE 20:48:48 13° SE
Cosmos 1408 4.2 20:43:50 16° ESE 20:44:47 17° E 20:47:15 10° NE
Cosmos 2184 Rocket 3.9 20:39:54 10° S 20:46:02 83° E 20:52:14 10° N
Cosmos 2278 Rocket 2.7 20:41:21 10° S 20:46:33 38° ESE 20:51:45 10° NE
ALOS 2.5 20:42:56 10° S 20:47:35 71° W 20:52:15 10° NNW
Cosmos 1825 3.5 20:47:48 18° ESE 20:49:06 21° E 20:52:01 10° NE
Cosmos 1844 Rocket 2.8 20:43:53 10° SSW 20:49:33 85° WNW 20:55:13 10° NNE
Cosmos 1844 3.7 20:45:39 10° S 20:51:21 71° ESE 20:57:07 10° NNE
H-2A R/B 3.1 20:55:26 20° ESE 20:57:21 27° ENE 21:00:57 10° NNE
FENGYUN 3A 4.1 20:52:44 10° S 20:58:04 63° WSW 21:03:25 10° NNW
Intelsat 3F5 C 3.9 20:55:04 10° W 20:58:22 79° S 20:59:55 26° E
Cosmos 1184 Rocket 4.3 20:59:21 21° E 20:59:21 21° E 21:01:41 10° NE
CENTAUR R/B 3.2 20:57:35 10° NNW 21:05:41 81° WSW 21:12:56 15° SSE
Meteor 2-10 Rocket 3.9 21:00:00 10° NNW 21:05:46 76° W 21:11:19 10° S
Myojo/LAPS 4.0 21:09:19 10° SW 21:11:58 24° S 21:11:58 24° S
ISS -1.3 21:09:54 10° WSW 21:12:50 31° NW 21:15:47 10° NNE
Meteor 1-10 Rocket 4.2 21:07:35 10° N 21:13:24 90° N 21:18:23 14° S
USA 186 3.8 21:11:02 10° SSW 21:13:38 26° W 21:16:22 10° NW
EO 1 Delta rocket 4.1 21:08:24 10° NNE 21:14:01 60° E 21:17:43 17° S
Centaur D-1A AC-32 2.6 21:10:21 10° WSW 21:15:59 38° S 21:16:50 32° SE
Cosmos 1862 3.3 21:14:21 22° S 21:16:53 65° E 21:20:55 10° NNE
Cosmos 676 Rocket 4.4 21:11:55 10° N 21:16:53 43° ENE 21:18:54 30° ESE
SPOT 5 3.7 21:15:47 27° ESE 21:17:49 38° ENE 21:22:43 10° N
Cosmos 1238 Rocket 3.6 21:15:32 10° NNE 21:18:32 29° E 21:18:32 29° E
Orbus 7S 4.0 21:14:54 10° W 21:19:58 41° SSW 21:20:26 38° SSE
Cosmos 2297 4.2 21:19:07 25° SSE 21:21:38 38° ESE 21:26:51 10° NE
Okean 2 Rocket 3.4 21:25:23 40° ESE 21:26:06 43° E 21:30:17 10° NNE
OAO 3 Rocket 3.1 21:22:45 10° WSW 21:27:42 74° SSE 21:30:20 27° ENE
COS B Rocket 3.0 21:24:55 10° N 21:28:47 65° E 21:29:13 58° SE
ATLAS 2A CENTAUR R/B 2.4 21:26:50 10° WSW 21:28:14 19° SW 21:28:14 19° SW
Cosmos 1674 Rocket 4.0 21:25:51 10° NNW 21:30:15 62° W 21:33:03 21° S
Okean 3 3.9 21:28:10 10° N 21:32:14 42° E 21:32:25 42° E
SL-27 R/B 3.4 21:31:16 10° NNW 21:34:43 44° WSW 21:35:57 31° SSW
Cosmos 1606 2.6 21:33:03 10° N 21:36:59 88° W 21:37:45 56° S
Cosmos 1782 Rocket 3.4 21:38:01 39° S 21:39:37 83° E 21:44:07 10° N
Nadezhda 3 Rocket 3.9 21:33:30 10° N 21:39:54 81° E 21:43:14 30° S
PSLV R/B 3.3 21:37:22 10° WNW 21:40:36 75° W 21:40:36 75° W
Meteor 1-27 Rocket 3.6 21:35:32 10° N 21:41:05 89° W 21:43:36 34° S
Meteor 2-13 Rocket 4.4 21:39:53 30° SSE 21:43:01 68° E 21:49:08 10° NNE
Meteosat 1 Rocket2 4.2 21:37:22 10° W 21:43:17 74° S 21:47:26 33° ESE
BREEZE-M DEB (TANK) 4.5 21:36:59 10° NW 21:46:06 29° N 21:48:20 19° ENE
MetOp-B 4.2 21:46:20 49° SE 21:47:31 62° ENE 21:52:47 10° N
Envisat 3.1 21:46:06 34° S 21:48:16 70° WSW 21:53:21 10° NNW
Cosmos 1782 4.4 21:44:41 10° NNW 21:48:19 32° W 21:50:33 19° SW
GPS 2-05 Rocket1 4.2 21:46:29 10° WNW 21:49:57 37° N 21:50:39 33° NNE
ERBS 4.3 21:48:18 10° WNW 21:50:59 21° WSW 21:51:07 21° SW
APEX 3.2 21:51:35 77° WSW 21:51:45 80° WNW 21:56:16 10° NNE
COSMOS 2487 3.3 21:49:34 10° N 21:52:14 43° NNE 21:52:14 43° NNE
Cosmos 1939 Rocket 4.0 21:53:45 31° SW 21:54:47 38° W 21:58:26 10° NNW
SEDSat Delta rocket 3.3 21:50:56 10° WSW 21:54:14 48° SW 21:54:14 48° SW
Cosmos 2341 Rocket 4.3 21:52:34 12° SSW 21:58:23 64° W 22:04:37 10° N
Cosmos 1420 Rocket 4.3 21:55:11 12° SSW 21:59:57 64° WNW 22:05:08 10° N
Cosmos 1975 Rocket 3.0 21:56:20 10° N 22:00:24 77° NNE 22:00:24 77° NNE
Atlas Centaur 2 2.4 21:58:44 10° W 22:00:48 31° WSW 22:00:48 31° WSW
ARGOS 3.3 22:05:13 53° ENE 22:05:15 53° ENE 22:10:28 10° N
SL-8 Rocket 3.9 22:10:09 46° S 22:12:13 87° W 22:18:29 10° N
H-2A R/B 3.3 22:13:15 29° NE 22:13:15 29° NE 22:17:06 10° N
ATLAS 5 CENTAUR R/B 4.1 22:08:35 10° WNW 22:13:43 27° WSW 22:16:44 19° SSW
CZ-4 R/B 4.1 22:11:08 10° NNE 22:14:48 55° NNE 22:14:48 55° NNE
YAOGAN 6 4.3 22:18:38 32° NW 22:18:38 32° NW 22:20:42 10° NNW
Timation 2 Rocket 3.8 22:13:13 10° NNW 22:19:11 68° ENE 22:19:21 67° E
Cosmos 1140 Rocket 3.4 22:14:12 10° NNW 22:19:08 82° NNW 22:19:08 82° NNW
Meteor 1-25 Rocket 4.5 22:23:29 57° ENE 22:23:29 57° ENE 22:28:28 10° NNE
Cosmos 1242 Rocket 4.4 22:22:39 10° NNW 22:24:43 30° NNW 22:24:43 30° NNW
SPOT 1/Viking Rocket 3.6 22:28:03 75° WNW 22:28:03 75° WNW 22:33:01 10° NNW
USA 234 3.0 22:21:29 10° NE 22:28:02 79° SE 22:30:49 38° SSW
CZ-4B R/B 4.1 22:25:50 10° N 22:30:34 50° WNW 22:31:08 47° W
Cosmos 2278 Rocket 4.4 22:26:16 10° WSW 22:30:40 23° WNW 22:35:05 10° N
H-2A R/B 4.2 22:32:35 18° WSW 22:33:17 18° W 22:36:17 10° NW
Cosmos 1833 Rocket 3.6 22:29:25 10° N 22:33:42 37° NE 22:33:42 37° NE
Cosmos 864 Rocket 4.5 22:42:35 71° WSW 22:42:50 72° W 22:48:59 10° N
Terra 3.3 22:52:21 32° N 22:52:21 32° N 22:54:57 10° N
CZ-3C R/B 3.6 22:38:31 10° WSW 22:50:58 32° SW 22:50:58 32° SW
Cosmos 2366 rocket 4.4 22:51:57 52° WSW 22:52:44 55° W 22:58:54 10° N
Cosmos 2082 Rocket 2.7 22:50:28 10° NNW 22:54:52 55° NNW 22:54:52 55° NNW
Lacrosse 5 4.4 23:17:36 13° NNE 23:17:36 13° NNE 23:18:04 10° NNE
USA 229 DEB 3.9 23:10:38 10° NNW 23:16:52 70° NNW 23:16:52 70° NNW
USA 229 3.9 23:10:44 10° NNW 23:16:58 69° N 23:16:58 69° N
Cosmos 2369 Rocket 4.2 23:42:13 21° NNE 23:42:13 21° NNE 23:44:01 10° NNE
H-2A R/B 4.2 23:53:53 20° WNW 23:53:53 20° WNW 23:56:12 10° NW
